Tracking 17857 objects as of 29-September-2016
HD Live streaming from Space Station
objects crossing your sky now

N-1 R/B

Track N-1 R/B now!
10-day predictions


NORAD ID: 8710
Int'l Code: 1976-019B
Perigee: 996.1 km
Apogee: 1,018.5 km
Inclination: 69.7 °
Period: 105.1 minutes
Semi major axis: 7378 km
RCS: 1.547 m2 (large)
Launch date: February 29, 1976
Source: Japan (JPN)
Launch site: TANEGASHIMA SPACE CENTER (TNSTA)

Note: This is a ROCKET BODY
Your satellite tracking list
Your tracking list is empty





NASA's NSSDC Master Catalog

Two Line Element Set (TLE):
1 08710U 76019B   16273.53440284 -.00000052  00000-0  11773-6 0  9991
2 08710  69.6791  22.2169 0015208 233.7251 204.2905 13.69834165 29466
Source of the keplerian elements: AFSPC

N2YO: 1780